DW2802 Ogijares ES current weather conditions

sailwx.info

Wind from 164

Air temperature 20.0° C
Dewpoint 13.9° C

Last reported at 2014-Jul-31 03:37 UTC.
Time now 2014-Jul-31 05:24 UTC

Location: N 37°07' W 003°36'.
View on Google Maps.

See reports from other nearby stations

  
Tides and Currents Weather Stations Pressure Air Temp Water Temp Dewpoint Dewpoint Depression Visibility Wind Speed Wind Dir Waves Ship Positions
date/time (UTC)wind fromknots sea level pressurealtimeterstation pressurevisibilityair tempwater tempwave heightnotes
2014-Jul-31 04:37 164 19.4
2014-Jul-31 04:22 164 19.4
2014-Jul-31 04:07 164 19.4
2014-Jul-31 03:52 164 20.0
2014-Jul-31 03:37 164 20.0
2014-Jul-31 03:22 164 20.6
2014-Jul-31 03:07 164 20.6
2014-Jul-31 02:54 164 21.1
2014-Jul-31 02:37 164 21.1
2014-Jul-31 02:22 164 21.1
2014-Jul-31 02:07 164 21.1
2014-Jul-31 01:52 164 21.1
2014-Jul-31 01:37 166 21.1
2014-Jul-31 01:22 229 21.7
2014-Jul-31 01:07 229 21.7
2014-Jul-31 00:52 229 21.7
2014-Jul-31 00:37 229 22.2
2014-Jul-31 00:22 229 22.2
2014-Jul-31 00:08 229 22.2
2014-Jul-30 23:52 229 22.8
2014-Jul-30 23:37 265 22.8
2014-Jul-30 23:22 265 23.3
2014-Jul-30 23:07 265 23.9
2014-Jul-30 22:37 197 23.9
2014-Jul-30 22:22 197 24.4
2014-Jul-30 22:07 197 24.4
2014-Jul-30 21:52 197 24.4
2014-Jul-30 21:37 197 25.0
2014-Jul-30 21:22 197 25.6
2014-Jul-30 21:07 197 25.6
2014-Jul-30 20:52 197 26.1
2014-Jul-30 20:37 197 26.1
2014-Jul-30 20:22 197 1 gusting 3 26.7
2014-Jul-30 20:06 198 27.2
2014-Jul-30 19:52 198 27.2
2014-Jul-30 19:36 198 0 gusting 4 27.8
2014-Jul-30 19:21 194 2 gusting 6 28.3
2014-Jul-30 19:06 200 1 gusting 6 28.9
2014-Jul-30 18:50 205 2 gusting 6 29.4
2014-Jul-30 18:37 234 2 gusting 6 30.0
2014-Jul-30 18:21 234 3 gusting 6 30.0
2014-Jul-30 18:06 211 3 gusting 6 30.6
2014-Jul-30 17:51 195 3 gusting 8 30.6
2014-Jul-30 17:35 241 6 gusting 10 30.6
2014-Jul-30 17:20 242 3 gusting 6 30.6
2014-Jul-30 17:06 191 5 gusting 11 31.1
2014-Jul-30 16:51 190 4 gusting 7 31.7
2014-Jul-30 16:35 220 3 gusting 9 31.1
2014-Jul-30 16:20 240 6 gusting 12 31.1
2014-Jul-30 16:05 213 4 gusting 9 31.1
2014-Jul-30 15:50 190 5 gusting 9 31.1
2014-Jul-30 15:35 163 4 gusting 8 31.1
2014-Jul-30 15:20 277 1 gusting 9 31.1
2014-Jul-30 15:05 258 6 gusting 10 31.7
2014-Jul-30 14:50 214 2 gusting 10 31.1
2014-Jul-30 14:35 271 4 gusting 9 30.6
2014-Jul-30 14:05 229 2 gusting 9 30.0
2014-Jul-30 13:50 254 6 gusting 10 29.4
2014-Jul-30 13:20 317 3 gusting 10 29.4
2014-Jul-30 13:05 242 4 gusting 7 29.4
2014-Jul-30 12:50 115 28.3
2014-Jul-30 12:35 225 3 gusting 8 28.3
2014-Jul-30 12:20 261 6 gusting 10 27.8
2014-Jul-30 12:05 236 5 gusting 12 27.8
2014-Jul-30 11:50 218 7 gusting 12 27.8
2014-Jul-30 11:35 219 5 gusting 10 27.8
2014-Jul-30 11:19 204 3 gusting 13 27.2
2014-Jul-30 11:04 231 5 gusting 10 27.2
2014-Jul-30 10:49 147 0 gusting 6 27.8
2014-Jul-30 10:34 302 26.7
2014-Jul-30 10:19 301 0 gusting 4 26.7
2014-Jul-30 10:04 360 0 gusting 4 26.7
2014-Jul-30 09:49 296 25.6
2014-Jul-30 09:34 292 2 gusting 6 25.0
2014-Jul-30 09:19 316 25.0
2014-Jul-30 09:04 319 24.4
2014-Jul-30 08:49 317 23.9
2014-Jul-30 08:34 319 23.9
2014-Jul-30 08:19 306 22.8
2014-Jul-30 08:04 016 23.3
2014-Jul-30 07:49 061 23.3
2014-Jul-30 07:34 068 23.3
2014-Jul-30 07:18 069 22.8
2014-Jul-30 07:03 070 21.7
2014-Jul-30 06:48 071 21.1
2014-Jul-30 06:33 071 20.6
2014-Jul-30 06:18 071 20.0
2014-Jul-30 06:03 071 18.9
2014-Jul-30 05:48 071 18.9
2014-Jul-30 05:33 071 18.9
2014-Jul-30 05:18 071 18.9
2014-Jul-30 05:03 071 18.9
2014-Jul-30 04:48 071 18.9
2014-Jul-30 04:33 071 18.9
2014-Jul-30 04:18 071 19.4
2014-Jul-30 04:03 071 20.6
2014-Jul-30 03:48 071 20.6
2014-Jul-30 03:33 071 20.6
2014-Jul-30 03:18 072 20.6
2014-Jul-30 03:03 103 21.1
2014-Jul-30 02:48 123 21.1
2014-Jul-30 02:33 123 21.1
2014-Jul-30 02:18 123 21.7
2014-Jul-30 02:03 124 21.7
2014-Jul-30 01:48 125 21.7
2014-Jul-30 01:33 143 2 gusting 7 21.7
2014-Jul-30 01:18 169 4 gusting 8 21.7
2014-Jul-30 01:03 162 3 gusting 8 21.7
2014-Jul-30 00:48 155 6 gusting 7 21.7
2014-Jul-30 00:32 167 21.1
2014-Jul-30 00:17 167 21.1
2014-Jul-30 00:02 167 21.7
2014-Jul-29 23:47 167 21.7
2014-Jul-29 23:32 167 21.7
2014-Jul-29 23:17 167 22.2
2014-Jul-29 23:02 167 22.2
2014-Jul-29 22:47 167 22.8
2014-Jul-29 22:32 167 22.8
2014-Jul-29 22:17 167 23.3
2014-Jul-29 22:02 167 23.9
2014-Jul-29 21:47 167 24.4
2014-Jul-29 21:32 167 24.4
2014-Jul-29 21:17 170 4 gusting 7 25.0
2014-Jul-29 21:02 180 25.0
2014-Jul-29 20:47 163 2 gusting 6 25.6
2014-Jul-29 20:32 169 0 gusting 6 25.6
2014-Jul-29 20:17 170 0 gusting 5 25.6
2014-Jul-29 20:02 186 1 gusting 6 26.1
2014-Jul-29 19:47 218 1 gusting 4 26.7
2014-Jul-29 19:31 253 2 gusting 6 27.2
2014-Jul-29 19:16 297 3 gusting 8 27.8
2014-Jul-29 19:02 270 5 gusting 8 28.3
2014-Jul-29 18:46 290 6 gusting 12 28.9
2014-Jul-29 18:32 290 4 gusting 11 29.4
2014-Jul-29 18:17 272 7 gusting 12 30.0
2014-Jul-29 18:01 297 6 gusting 11 30.0
2014-Jul-29 17:46 281 6 gusting 13 30.6
2014-Jul-29 17:31 269 7 gusting 12 30.6
2014-Jul-29 17:16 281 6 gusting 11 31.1
2014-Jul-29 17:01 315 6 gusting 13 31.1
2014-Jul-29 16:46 325 6 gusting 12 31.7
2014-Jul-29 16:31 305 1 gusting 13 31.7
2014-Jul-29 16:16 331 7 gusting 13 31.7
2014-Jul-29 16:00 325 6 gusting 10 31.7
2014-Jul-29 15:46 312 4 gusting 16 31.7
2014-Jul-29 15:30 337 5 gusting 10 32.2
2014-Jul-29 15:16 281 4 gusting 13 32.2
2014-Jul-29 15:01 283 4 gusting 13 31.7
2014-Jul-29 14:46 287 6 gusting 14 31.7
2014-Jul-29 14:31 316 5 gusting 10 31.7
2014-Jul-29 14:16 319 4 gusting 8 31.7
2014-Jul-29 14:01 329 5 gusting 11 31.7
2014-Jul-29 13:45 345 5 gusting 10 31.7
2014-Jul-29 13:30 288 1 gusting 11 30.6
2014-Jul-29 13:15 309 2 gusting 6 31.1
2014-Jul-29 13:00 294 6 gusting 10 30.0
2014-Jul-29 12:45 305 1 gusting 9 30.0
2014-Jul-29 12:30 010 0 gusting 8 29.4
2014-Jul-29 12:15 010 3 gusting 10 28.9
2014-Jul-29 12:00 351 0 gusting 8 28.3
2014-Jul-29 11:45 271 27.8
2014-Jul-29 11:30 324 2 gusting 6 27.8
2014-Jul-29 11:15 340 0 gusting 4 27.2
2014-Jul-29 11:00 307 2 gusting 5 26.7
2014-Jul-29 10:45 329 1 gusting 6 26.1
2014-Jul-29 10:30 300 0 gusting 7 25.6
2014-Jul-29 10:15 329 1 gusting 6 25.0
2014-Jul-29 10:00 269 2 gusting 5 24.4
2014-Jul-29 09:45 300 0 gusting 5 24.4
2014-Jul-29 09:30 302 1 gusting 4 23.9
2014-Jul-29 09:14 317 23.3
2014-Jul-29 08:59 302 0 gusting 4 22.8
2014-Jul-29 08:44 329 22.8
2014-Jul-29 08:29 325 22.2
2014-Jul-29 08:14 338 1 gusting 4 21.7
2014-Jul-29 07:59 284 21.7
2014-Jul-29 07:44 296 21.7
2014-Jul-29 07:29 294 20.6
2014-Jul-29 07:14 294 20.6
2014-Jul-29 06:59 294 20.6
2014-Jul-29 06:44 294 20.0
2014-Jul-29 06:29 294 18.9
2014-Jul-29 06:14 219 17.8
2014-Jul-29 05:58 221 17.2
2014-Jul-29 05:43 241 17.2
2014-Jul-29 05:28 241 17.2
2014-Jul-29 05:13 241 17.8